[[{"header":{"parameterUnit":"m.s-1","parameterCategory":1,"la1":30.2991,"la2":30.254,"lo1":-89.0895,"lo2":-89.0444,"dy":0.0017,"dx":0.0017,"nx":28,"ny":28,"refTime":"2023-11-06T03:00:00:Z","depth":0,"parameterNumber":2,"parameterNumberName":"U-component_of_WINDS"},"data":[0,0,0,0,0,0,0,0,0,0,0,0,0,0,0,0,0,0,0,0,0,0,0,0,0,0,0,0,0,0,0,0,0,0,0,0,0,0,0,0,0,0,0,0,0,0,0,0,0,0,0,0,0,0,0,0,0,0,1.2971,1.2972,0,1.301,1.3011,1.3011,1.2986,1.2985,1.2984,1.2983,1.3021,1.3024,1.3026,0,0,0,0,0,0,0,0,0,0,0,0,0,1.2873,1.2875,1.2971,1.2972,1.2972,1.301,1.3011,1.3011,1.2986,1.2985,1.2983,1.2982,1.3021,1.3023,1.3026,0,0,0,0,0,0,0,0,0,0,0,0,0,1.2914,1.2876,1.2971,1.2964,1.2964,1.301,1.3011,1.3011,1.2986,1.2985,1.2983,1.2981,1.302,1.3023,1.3026,1.3081,0,0,1.3036,1.3037,0,0,0,0,0,0,0,0,1.2912,1.2918,1.2965,1.2965,1.2965,1.2991,1.299,1.3035,1.2987,1.2978,1.2983,1.298,1.3013,1.3017,1.3028,1.3083,1.3084,1.3036,1.3038,1.304,1.304,0,0,0,0,0,0,0,1.2909,1.2916,1.2987,1.2965,1.2965,1.2959,1.2963,1.2999,1.3005,1.2979,1.2977,1.2982,1.3012,1.3025,1.3028,1.3085,1.3036,1.3039,1.3041,1.3042,1.3186,1.3188,0,0,0,0,0,0,1.2907,1.2914,1.2985,1.2988,1.2933,1.2962,1.2966,1.2985,1.3004,1.3006,1.2983,1.2981,1.302,1.3025,1.303,1.3095,1.3039,1.3042,1.3044,1.3184,1.3187,1.3189,0,0,0,0,0,0,1.2905,1.2914,1.2984,1.295,1.2959,1.2965,1.2986,1.2986,1.2998,1.3008,1.3009,1.2995,1.3019,1.3025,1.3068,1.3096,1.3044,1.3047,1.3182,1.3185,1.3188,1.3225,0,0,0,0,0,0,1.2902,1.2913,1.2934,1.2951,1.2961,1.3022,1.2988,1.2988,1.3004,1.3001,1.3019,1.302,1.3018,1.3064,1.3071,1.3099,1.3049,1.318,1.3184,1.3187,1.3221,1.3229,1.3235,0,0,0,0,0,1.2899,1.2943,1.2935,1.2944,1.2987,1.3024,1.3029,1.3026,1.3006,1.3027,1.3034,1.3019,1.3092,1.3068,1.3077,1.3106,1.3178,1.3182,1.3187,1.3218,1.3227,1.3235,0,0,0,0,0,0,1.2929,1.2945,1.2937,1.2988,1.3005,1.302,1.3046,1.3036,1.3059,1.3055,1.305,1.3054,1.3099,1.3107,1.3081,1.3159,1.3132,1.3138,1.3153,1.3161,1.3168,1.3165,1.3052,0,0,0,0,0,1.2941,1.297,1.2983,1.3026,1.3035,1.3039,1.3055,1.3051,1.3068,1.3075,1.3084,1.3101,1.3128,1.3145,1.317,1.3223,1.3226,1.3247,1.3254,1.3259,1.3264,1.3292,1.3302,1.3203,1.3203,1.3203,0,0,1.2967,1.298,1.2998,1.3033,1.3045,1.3075,1.3045,1.3078,1.3099,1.308,1.3121,1.3129,1.3147,1.3195,1.3217,1.3203,1.3293,1.3265,1.3269,1.3271,1.3298,1.3307,1.3315,1.3206,1.3205,1.3205,0,0,1.303,1.3043,1.308,1.3094,1.3113,1.3116,1.3125,1.3141,1.3145,1.3187,1.3173,1.3198,1.3244,1.3258,1.327,1.3338,1.3326,1.3346,1.3382,1.341,1.3417,1.3424,1.3448,1.3456,1.3352,1.3352,1.3352,0,1.306,1.3104,1.3101,1.3134,1.3149,1.3134,1.3171,1.3185,1.3211,1.3222,1.3206,1.3263,1.3274,1.3325,1.3342,1.3353,1.3363,1.3344,1.3417,1.3423,1.343,1.3452,1.3461,1.3354,1.3354,1.3354,1.3353,0,1.3139,1.317,1.3198,1.3224,1.3243,1.3278,1.328,1.3299,1.3294,1.3298,1.334,1.3353,1.338,1.3392,1.3387,1.3442,1.3433,1.3417,1.3389,1.3442,1.3462,1.3471,1.3358,1.3357,1.3356,1.3355,0,0,1.3221,1.3245,1.3256,1.3267,1.3288,1.3311,1.3346,1.3373,1.3389,1.3408,1.3437,1.3476,1.3461,1.3476,1.3472,1.3496,1.3549,1.3478,1.3478,1.349,1.3609,1.3621,1.3631,1.3541,1.3543,1.3544,1.3608,0,1.3284,1.3344,1.3343,1.3399,1.3427,1.3413,1.3443,1.3459,1.3464,1.3488,1.3493,1.352,1.3499,1.3508,1.3531,1.3537,1.3572,1.3533,1.3567,1.3568,1.3562,1.3642,1.3654,1.3713,1.3616,1.3617,1.3618,0,1.3365,1.3387,1.3447,1.3463,1.3475,1.3502,1.3526,1.355,1.3567,1.3569,1.3586,1.3578,1.3613,1.3584,1.3631,1.3605,1.3618,1.3623,1.3626,1.3628,1.3596,1.3646,1.3732,1.3741,1.3631,1.363,1.3629,0,1.3418,1.3463,1.3504,1.3514,1.3535,1.3554,1.3563,1.3579,1.3595,1.3617,1.3627,1.3652,1.3665,1.3685,1.3684,1.3663,1.3732,1.3703,1.3734,1.3734,1.3748,1.3747,1.3837,1.3758,1.3758,1.3758,1.3758,0,1.3488,1.3525,1.3528,1.3553,1.3594,1.3591,1.3631,1.3638,1.3653,1.3679,1.3668,1.3693,1.3691,1.3716,1.3716,1.3754,1.3761,1.3763,1.3762,1.3763,1.3763,1.3772,1.3767,1.376,1.376,1.3759,1.3759,0,1.3553,1.3557,1.3601,1.3617,1.3622,1.3651,1.3664,1.3688,1.3692,1.3725,1.3733,1.3739,1.3767,1.3769,1.3802,1.3802,1.3849,1.3844,1.3843,1.3842,1.3872,1.3869,1.3971,1.3983,1.3897,1.3897,1.3898,0,1.3597,1.3625,1.3645,1.3661,1.3672,1.37,1.3716,1.3715,1.3733,1.3755,1.3776,1.3803,1.3825,1.3872,1.3879,1.3904,1.3899,1.3933,1.3903,1.3903,1.3899,1.3897,1.3899,1.3939,1.394,1.394,1.3941,0,1.3675,1.3675,1.37,1.3726,1.3746,1.3766,1.3784,1.3799,1.3799,1.382,1.3849,1.3866,1.39,1.3928,1.3952,1.3961,1.3951,1.3951,1.3959,1.396,1.3958,1.3959,1.3858,1.3948,1.3947,1.3947,1.3946,1.3946,1.373,1.3754,1.3772,1.38,1.3814,1.3831,1.3854,1.3861,1.3886,1.3914,1.3912,1.3944,1.3961,1.3992,1.4004,1.4029,1.4017,1.4029,1.4032,1.4035,1.4038,1.3955,1.4033,1.4033,1.4033,1.4033,1.4032,0,1.3807,1.3817,1.3843,1.387,1.3891,1.3881,1.3901,1.392,1.3948,1.3965,1.3987,1.4021,1.4047,1.4057,1.4083,1.4101,1.4097,1.4108,1.4106,1.4108,1.4047,1.4037,1.411,1.411,1.411,1.411,1.411,1.411,1.3849,1.3889,1.3892,1.3939,1.3949,1.3981,1.3993,1.4009,1.4022,1.4061,1.4083,1.4089,1.4103,1.413,1.4153,1.4155,1.4165,1.4178,1.4178,1.412,1.4112,1.4105,1.4095,1.418,1.418,1.4237,1.4237,1.4237]},{"header":{"parameterUnit":"m.s-1","parameterCategory":1,"la1":30.2991,"la2":30.254,"lo1":-89.0895,"lo2":-89.0444,"dy":0.0017,"dx":0.0017,"nx":28,"ny":28,"refTime":"2023-11-06T03:00:00:Z","depth":0,"parameterNumber":3,"parameterNumberName":"V-component_of_WINDS"},"data":[0,0,0,0,0,0,0,0,0,0,0,0,0,0,0,0,0,0,0,0,0,0,0,0,0,0,0,0,0,0,0,0,0,0,0,0,0,0,0,0,0,0,0,0,0,0,0,0,0,0,0,0,0,0,0,0,0,0,2.2218,2.2218,0,2.2218,2.2218,2.2218,2.2173,2.2172,2.2171,2.217,2.2169,2.217,2.2171,0,0,0,0,0,0,0,0,0,0,0,0,0,2.2178,2.2179,2.2218,2.2218,2.2218,2.2218,2.2218,2.2218,2.2173,2.2172,2.217,2.2169,2.2169,2.217,2.2172,0,0,0,0,0,0,0,0,0,0,0,0,0,2.2188,2.2179,2.2218,2.2195,2.2193,2.2218,2.2218,2.2218,2.2173,2.2172,2.217,2.2168,2.2169,2.217,2.2172,2.2217,0,0,2.2177,2.2177,0,0,0,0,0,0,0,0,2.2188,2.219,2.2199,2.2197,2.2195,2.2194,2.2204,2.2218,2.2174,2.2181,2.2169,2.2167,2.2179,2.2179,2.2183,2.2217,2.2217,2.2177,2.2178,2.2179,2.2179,0,0,0,0,0,0,0,2.2187,2.2189,2.2218,2.2199,2.2196,2.2185,2.2185,2.2206,2.219,2.218,2.2177,2.2178,2.2177,2.2182,2.2183,2.2217,2.2177,2.2178,2.2179,2.218,2.2288,2.229,0,0,0,0,0,0,2.2189,2.2189,2.2218,2.2218,2.2187,2.2187,2.2187,2.2196,2.2189,2.2187,2.2179,2.2176,2.218,2.2181,2.2183,2.2236,2.2179,2.218,2.2181,2.2287,2.2289,2.2291,0,0,0,0,0,0,2.2189,2.2192,2.2218,2.2202,2.2205,2.219,2.22,2.2197,2.2201,2.2189,2.2185,2.2187,2.2179,2.2181,2.2209,2.2235,2.2181,2.2182,2.2284,2.2287,2.229,2.2342,0,0,0,0,0,0,2.2188,2.2192,2.221,2.2203,2.2206,2.2244,2.2202,2.2198,2.2204,2.2199,2.2195,2.2193,2.2177,2.2207,2.2211,2.2237,2.2184,2.2282,2.2286,2.2289,2.2338,2.2347,2.2354,0,0,0,0,0,2.2187,2.2224,2.2211,2.2215,2.2227,2.2246,2.2247,2.2229,2.2206,2.2224,2.2216,2.2193,2.2232,2.221,2.2214,2.2241,2.228,2.2285,2.2289,2.2335,2.2345,2.2354,0,0,0,0,0,0,2.2234,2.2223,2.2208,2.2245,2.2247,2.2238,2.2259,2.2241,2.2249,2.2244,2.2221,2.222,2.2252,2.2249,2.2226,2.2285,2.2252,2.2257,2.2286,2.2295,2.2303,2.2303,2.2185,0,0,0,0,0,2.2249,2.2265,2.2254,2.2288,2.229,2.2275,2.2282,2.2268,2.2269,2.2269,2.2263,2.2265,2.2277,2.2286,2.2297,2.2337,2.2336,2.2358,2.2365,2.2372,2.2377,2.2398,2.2408,2.2305,2.2305,2.2305,0,0,2.228,2.2276,2.2287,2.2298,2.2297,2.2314,2.2275,2.2295,2.2308,2.2272,2.2299,2.2294,2.2294,2.2329,2.2344,2.2328,2.2405,2.2377,2.2383,2.2384,2.2404,2.2413,2.2422,2.2308,2.2307,2.2307,0,0,2.2345,2.2343,2.2371,2.2372,2.2372,2.2361,2.2368,2.2362,2.2358,2.2385,2.2358,2.2373,2.2395,2.2396,2.2399,2.2465,2.2444,2.2469,2.251,2.2531,2.2539,2.2546,2.257,2.2579,2.2474,2.2474,2.2474,0,2.2383,2.2408,2.2388,2.2409,2.2415,2.2383,2.2411,2.2413,2.2416,2.2421,2.2402,2.2429,2.2427,2.2462,2.2478,2.2481,2.2488,2.2469,2.254,2.2547,2.2553,2.2575,2.2584,2.2477,2.2477,2.2476,2.2476,0,2.2455,2.2473,2.2495,2.25,2.2507,2.2532,2.2516,2.2526,2.2511,2.2503,2.253,2.2526,2.2536,2.2543,2.2529,2.2576,2.2566,2.2544,2.251,2.2566,2.2587,2.2595,2.2481,2.248,2.2479,2.2479,0,0,2.255,2.2543,2.2552,2.2554,2.2551,2.2565,2.2588,2.2597,2.2607,2.261,2.2629,2.2648,2.2628,2.2632,2.2617,2.2636,2.2688,2.2612,2.2611,2.2626,2.2741,2.2757,2.2768,2.2675,2.2676,2.2677,2.2741,0,2.2613,2.2653,2.2636,2.2677,2.2693,2.2663,2.2683,2.2684,2.2677,2.2689,2.2681,2.2695,2.2667,2.2669,2.2686,2.2679,2.2711,2.2674,2.2692,2.2693,2.2693,2.2778,2.2796,2.2856,2.2748,2.275,2.2751,0,2.2693,2.27,2.2743,2.2737,2.2743,2.2762,2.2769,2.2782,2.2782,2.2775,2.278,2.2761,2.2783,2.275,2.278,2.2755,2.2762,2.2759,2.2761,2.2762,2.2726,2.2782,2.2875,2.2884,2.2763,2.2762,2.2761,0,2.2758,2.2778,2.2807,2.2809,2.2803,2.2817,2.2816,2.2814,2.2821,2.2827,2.2831,2.284,2.2845,2.2852,2.2836,2.2814,2.2869,2.2835,2.2864,2.2865,2.2878,2.2877,2.2973,2.2881,2.2881,2.2881,2.2881,0,2.2831,2.2858,2.2836,2.2854,2.2884,2.2863,2.2893,2.2888,2.2887,2.2903,2.2877,2.2893,2.2871,2.2884,2.2872,2.2899,2.2901,2.2896,2.2893,2.2899,2.29,2.2903,2.2899,2.2883,2.2883,2.2882,2.2882,0,2.2909,2.2896,2.2925,2.2917,2.2916,2.2938,2.2932,2.2947,2.2938,2.2959,2.2962,2.2948,2.2962,2.2947,2.296,2.2952,2.2989,2.2979,2.2989,2.2986,2.3017,2.3014,2.3118,2.3131,2.3031,2.3032,2.3033,0,2.2957,2.2978,2.2972,2.2981,2.2981,2.2996,2.3003,2.2983,2.2991,2.2993,2.3009,2.3021,2.3029,2.3054,2.3044,2.3054,2.3045,2.308,2.3046,2.3052,2.3046,2.3045,2.3047,2.3088,2.3089,2.309,2.3091,0,2.3043,2.3035,2.3046,2.3055,2.3064,2.307,2.3074,2.3082,2.3062,2.3072,2.3087,2.3094,2.3107,2.3119,2.3127,2.3125,2.3105,2.3102,2.3109,2.3116,2.3121,2.3119,2.3008,2.3099,2.3098,2.3098,2.3097,2.3097,2.3107,2.3124,2.3123,2.3137,2.3137,2.3142,2.3156,2.3149,2.3161,2.317,2.3158,2.3176,2.3175,2.3183,2.3183,2.3197,2.3181,2.3192,2.3195,2.3198,2.3203,2.3118,2.3198,2.3197,2.3197,2.3197,2.3197,0,2.3192,2.319,2.3202,2.3209,2.3219,2.3199,2.3202,2.3212,2.3228,2.323,2.3239,2.3255,2.3267,2.3259,2.3269,2.3282,2.3273,2.3285,2.3284,2.3284,2.3216,2.3208,2.3292,2.3292,2.3292,2.3292,2.3292,2.3292,2.3238,2.3265,2.3257,2.3285,2.3282,2.33,2.3304,2.3307,2.3308,2.3328,2.3338,2.3332,2.333,2.3339,2.3349,2.3346,2.3352,2.3367,2.3361,2.3298,2.3289,2.328,2.3273,2.3369,2.3369,2.3428,2.3429,2.3429]}]]